Погода в Кличеве

Погода в Кличеве : погода сейчас, прогноз погоды и архив. Всё, что Вы хотите узнать о погоде в Кличеве!

Хотите узнать прогноз погоды в Кличеве? Тогда Вам сюда: Погода в Кличеве

Поиск расширенной информации на нашем сайте:

Другие новости

Новости СМИ2

Главная страница сайта

Новости сайта

03.07.2017

Напоминаем, что на нашем специализированном сайте Метеоцентр.Азия вы можете получить высокодетализированные автоматические прогнозы погоды по пунктам России, СНГ и мира в авиационном формате (включающие направление и скорость ветра, видимость, явления погоды, количество и форму облачности, нижнюю и верхнюю границу облачности).

Рекомендуем: горящие туры в Италию цены в 2017 году на двоих все включено здесь

Погода в Кличеве - сегодня

Время (UTC), дата Ветер
(°,м/с) 
Видим.   Явления Облачность Т
(°С)
Тd
(°С)
f(%) Тe
(°С)
Pmin
(гПа)
dP
(гПа)
Po
(мм)
O2
(г/м3)
Тmin Tmax R s Состояние
почвы
21 19.08.17 150 (ЮВ) 20000 м    4/0 средняя 
[Ac und]
+22 +11.4 51 +25  1017.2  0.6  749  277           
00 20.08.17 150 (ЮВ) 20000 м    ясно 
+20.1 +11 56 +23  1017.1  -0.2  749  279           
03 20.08.17 200 (Ю) 20000 м    6/0 средняя 
[Ac und]
+15.9 +11.5 75 +20  1017.9  0.4  750  283           
06 20.08.17 тихо ()   20000 м    6/0 верхняя 
[Cs]
+21.1 +13.3 61 +27  1017.6  0.1  750  278  +15.6         
09 20.08.17 160 (Ю) 20000 м    8/0 верхняя 
[Ci sp]
+28.3 +11.4 35 +31  1016.8  -0.3  749  272           
12 20.08.17 150 (ЮВ) 20000 м    8/0 верхняя 
[Ci sp]
+31.2 +11.6 30 +35  1015.4  -1.1  749  269           
15 20.08.17 160 (Ю) 3{11}  20000 м    6/0 верхняя 
[Ci sp]
+31.1 +9.3 26 +31  1014.3  -1.1  748  269           
18 20.08.17 130 (ЮВ) 20000 м    9/0 средняя, верхняя 
[Ac und|Ci sp]
+25.6 +10.2 38 +27  1014.6  -0.1  748  274    +32.3       
21 20.08.17 140 (ЮВ) 10 км    4/0 средняя 
[Ac und]
+23.2 +9.9 43 +24  1014.3  -0.5  747  276           
00 21.08.17 160 (Ю) 10 км    ясно 
+20.7 +10.5 52 +23  1013.6  -0.8  747  278           
03 21.08.17 130 (ЮВ) 10 км    8/4 600 м средняя 
[Sc|Ac und]
+17.5 +11.3 67 +22  1013.3  -0.6  746  280           
06 21.08.17 220 (ЮЗ) 10 км    9/9 750 м кучево-дожд. 
[Cb calv]
+18.2 +13.9 76 +27  1013.3  0.1  746  279  +16.2         
09 21.08.17 280 (З) 20000 м    8/8 750 м кучево-дожд. 
[Cb calv]
+21.4 +15.3 68 +31  1013.6  0.5  747  276           
12 21.08.17 310 (СЗ) 20000 м    4/4 600 м кучево-дожд. 
[Cb calv]
+23 +16.3 66 +34  1013.6  0.1  747  274           
15 21.08.17 280 (З) 20000 м    8/8 750 м кучево-дожд. 
[Cb calv]
+20.6 +15.8 74 +31  1013.4  -0.3  747  276           
18 21.08.17 250 (З) 4000 м  в посл. час гроза{ливн. осадки}  10/10 420 м кучево-дожд. 
[Cb cap]
+16.7 +15.2 91 +26  1014.4  0.7  747  280    +23.5     
00 22.08.17 320 (СЗ) 4000 м  слаб. ливневой дождь  10/10 420 м кучево-дожд. 
[Cb cap]
+14 +13.2 95 +20  1014  -0.5  747  284         
03 22.08.17 340 (С) 4000 м  слаб. ливневой дождь  10/10 420 м кучево-дожд. 
[Cb cap]
+13.7 +13.2 97 +20  1013.3  -0.7  746  284         
06 22.08.17 330 (СЗ) 4000 м  слаб. ливневой дождь  10/10 420 м кучево-дожд. 
[Cb cap]
+13.8 +13.3 97 +19  1012.9  -0.4  746  283  +13.6    13     
12 22.08.17 320 (СЗ) 10 км  {ливн. осадки}  9/9 720 м кучево-дожд. 
[Cb calv]
+15.1 +13.3 89 +21  1011.8  -1.2  745  282           
18 22.08.17 330 (СЗ) 4000 м  слаб. дождь  10/10 420 м 
[Frnb|Ns]
+13.8 +13.2 96 +20  1011  -1  744  283    +15.5     
00 23.08.17 330 (СЗ) 4000 м  слаб. дождь  10/10 420 м 
[Frnb|Ns]
+12.9 +12.4 97 +17  1007  -2.4  741  283         
03 23.08.17 290 (З) 4000 м  слаб. дождь  10/10 420 м 
[Frnb|Ns]
+12.7 +12.2 97 +17  1006.1  -0.9  741  283      10     
06 23.08.17 280 (З) 4000 м  слаб. ливневой дождь  10/10 420 м кучево-дожд. 
[Cb cap]
+13.3 +12.8 97 +18  1005  -1  740  282  +12.7    14     
12 23.08.17 290 (З) 8-11{14}  10 км  {ливн. осадки}  9/9 750 м кучево-дожд. 
[Cb calv]
+16.1 +12.3 78 +20  1005.7  0.5  741  279           
Время (UTC), дата Ветер
(°,м/с) 
Видим.   Явления Облачность Т
(°С)
Тd
(°С)
f(%) Тe
(°С)
Pmin
(гПа)
dP
(гПа)
Po
(мм)
O2
(г/м3)
Тmin Tmax R s Состояние
почвы

Для получения пояснительной информации подведите курсор к названию столбца.

ПОГОДА в Кличеве - архив

Всё, что Вы хотите узнать о погоде в Кличеве - удобно и подробно!

Выберите нужную дату (начиная с 1 января 2015* года) и нажмите кнопку "Найти".
Будут отображены архивные сводки погоды по пункту Кличев, начиная с указанной даты.


Отображать данные в формате CSV (для использования в таблицах Excel)


Внимание! Наш архив погоды предназначен исключительно для личного некоммерческого использования в познавательных целях. Если Вам необходимы официальные справки о состоянии погоды (для производственных, юридических, коммерческих и т.п. целей), обращайтесь в органы Росгидромета.

*Примечание: данная дата относится к архиву по метеостанциям СССР (Россия, СНГ, Балтия).
Архив по метеостанциям Зарубежной Европы и Азии (кроме Китая) хранится 10 дней, по другим регионам земного шара (Китай, Африка, Америка, Австралия, Океания) - 1 день.

Кличев - район местоположения метеостанции


Название, широта, долгота, высота метеостанции:
Кличев 53.5°ш. 29.3°д. 155 м над ур. моря [Беларусь]

Дополнительная информация

В oтличие oт бoльшинства пoгoдных сайтoв мы публикуем пoдрoбную метеoинфoрмацию в детальнoм прoфессиoнальнoм фoрмате.

Характеристики температуры и влажнoсти вoздуха измеряются на высoте 2 м в тени вдали oт зданий и деревьев.
Скoрoсть ветра измеряется на высoте 10 м (на урoвне рoста челoвека скoрoсть ветра ниже в 1.5-2 раза). Если метеoстанция нахoдится в гoрoде или в лесу, тo скoрoсть ветра занижена на 2-4 м/с пo сравнению с oткрытым местoм. Скoрoсть ветра над акватoриями крупных рек и oзёр, а также на вершинах хoлмoв на 2-5 м/с выше, чем в oбычных услoвиях.
Атмoсфернoе давление в разных тoчках местнoсти мoжет значительнo oтличаться oт давления на метеoстанции, в зависимoсти oт услoвий рельефа (при пoдъёме на 10 м давление пoнижается примернo на 1 мм рт.ст.).